Stündliche Wetter Kyzylozen

Heute, 10 Mai, Montag

Zeit Temperatur Niederschläge Wind Luftdruck Luftfeuchtigkeit
00:00 +18°C° 0 mm 4 m/S 756 mmHg 69%
01:00 +16°C° 0 mm 7 m/S 756 mmHg 76%
02:00 +15°C° 0 mm 9 m/S 756 mmHg 83%
03:00 +14°C° 0 mm 11 m/S 757 mmHg 90%
04:00 +13°C° 0.3 mm 11 m/S 757 mmHg 88%
05:00 +13°C° 0.3 mm 11 m/S 757 mmHg 86%
06:00 +13°C° 0.3 mm 12 m/S 758 mmHg 84%
07:00 +12°C° 0.9 mm 12 m/S 758 mmHg 83%
08:00 +10°C° 0.9 mm 12 m/S 759 mmHg 82%
09:00 +10°C° 0 mm 12 m/S 759 mmHg 80%
10:00 +9°C° 1.5 mm 11 m/S 760 mmHg 81%
11:00 +9°C° 1.5 mm 11 m/S 760 mmHg 81%
12:00 +9°C° 1.5 mm 10 m/S 761 mmHg 81%
13:00 +9°C° 0.2 mm 10 m/S 761 mmHg 75%
14:00 +11°C° 0.2 mm 9 m/S 761 mmHg 69%
15:00 +12°C° 0.2 mm 8 m/S 761 mmHg 62%
16:00 +12°C° 0 mm 7 m/S 761 mmHg 58%
17:00 +13°C° 0 mm 6 m/S 761 mmHg 54%
18:00 +14°C° 0 mm 5 m/S 762 mmHg 49%
19:00 +13°C° 0 mm 4 m/S 762 mmHg 51%
20:00 +13°C° 0 mm 4 m/S 762 mmHg 52%
21:00 +12°C° 0 mm 3 m/S 762 mmHg 54%
22:00 +12°C° 0 mm 3 m/S 762 mmHg 54%
23:00 +12°C° 0 mm 3 m/S 763 mmHg 54%

Morgen, 11 Mai, Dienstag

Zeit Temperatur Niederschläge Wind Luftdruck Luftfeuchtigkeit
00:00 +12°C° 0 mm 3 m/S 763 mmHg 55%
01:00 +12°C° 0 mm 3 m/S 763 mmHg 59%
02:00 +12°C° 0 mm 2 m/S 763 mmHg 63%
03:00 +12°C° 0 mm 2 m/S 763 mmHg 67%
04:00 +13°C° 0 mm 1 m/S 763 mmHg 64%
05:00 +13°C° 0 mm 1 m/S 763 mmHg 62%
06:00 +14°C° 0 mm 1 m/S 763 mmHg 60%
07:00 +15°C° 0 mm 2 m/S 763 mmHg 54%
08:00 +16°C° 0 mm 3 m/S 763 mmHg 49%
09:00 +17°C° 0 mm 4 m/S 763 mmHg 43%
10:00 +16°C° 0 mm 5 m/S 763 mmHg 44%
11:00 +16°C° 0 mm 6 m/S 762 mmHg 45%
12:00 +16°C° 0 mm 7 m/S 762 mmHg 45%
13:00 +16°C° 0 mm 7 m/S 762 mmHg 44%
14:00 +17°C° 0 mm 7 m/S 762 mmHg 43%
15:00 +17°C° 0 mm 7 m/S 761 mmHg 42%
16:00 +17°C° 0 mm 7 m/S 761 mmHg 43%
17:00 +16°C° 0 mm 6 m/S 760 mmHg 44%
18:00 +16°C° 0 mm 6 m/S 760 mmHg 45%
19:00 +16°C° 0 mm 6 m/S 760 mmHg 52%
20:00 +15°C° 0 mm 6 m/S 760 mmHg 58%
21:00 +15°C° 0 mm 6 m/S 760 mmHg 65%
22:00 +15°C° 0 mm 6 m/S 760 mmHg 69%
23:00 +15°C° 0 mm 5 m/S 759 mmHg 73%

übermorgen, 12 Mai, Mittwoch

Zeit Temperatur Niederschläge Wind Luftdruck Luftfeuchtigkeit
00:00 +15°C° 0 mm 4 m/S 759 mmHg 77%
01:00 +14°C° 0 mm 4 m/S 759 mmHg 77%
02:00 +14°C° 0 mm 4 m/S 759 mmHg 76%
03:00 +14°C° 0 mm 3 m/S 759 mmHg 75%
04:00 +14°C° 0 mm 4 m/S 759 mmHg 74%
05:00 +14°C° 0 mm 4 m/S 759 mmHg 73%
06:00 +15°C° 0 mm 5 m/S 759 mmHg 72%
07:00 +16°C° 0 mm 5 m/S 760 mmHg 66%
08:00 +17°C° 0 mm 5 m/S 760 mmHg 60%
09:00 +19°C° 0 mm 6 m/S 760 mmHg 53%
10:00 +19°C° 0.1 mm 5 m/S 760 mmHg 50%
11:00 +20°C° 0.1 mm 4 m/S 760 mmHg 46%
12:00 +21°C° 0.1 mm 3 m/S 761 mmHg 43%
13:00 +22°C° 0 mm 3 m/S 760 mmHg 42%
14:00 +23°C° 0 mm 2 m/S 760 mmHg 41%
15:00 +24°C° 0 mm 2 m/S 760 mmHg 40%
16:00 +23°C° 0 mm 2 m/S 760 mmHg 43%
17:00 +22°C° 0 mm 3 m/S 760 mmHg 47%
18:00 +21°C° 0 mm 3 m/S 760 mmHg 50%
19:00 +20°C° 0 mm 4 m/S 760 mmHg 57%
20:00 +19°C° 0 mm 5 m/S 760 mmHg 64%
21:00 +19°C° 0 mm 5 m/S 760 mmHg 71%
22:00 +19°C° 0 mm 5 m/S 759 mmHg 73%
23:00 +19°C° 0 mm 4 m/S 759 mmHg 75%

13 Mai, Donnerstag

Zeit Temperatur Niederschläge Wind Luftdruck Luftfeuchtigkeit
00:00 +19°C° 0 mm 4 m/S 759 mmHg 77%
01:00 +19°C° 0 mm 4 m/S 759 mmHg 68%
02:00 +20°C° 0 mm 4 m/S 758 mmHg 58%
03:00 +21°C° 0 mm 5 m/S 758 mmHg 49%
04:00 +21°C° 0 mm 5 m/S 759 mmHg 47%
05:00 +22°C° 0 mm 5 m/S 759 mmHg 46%
06:00 +22°C° 0 mm 5 m/S 759 mmHg 44%
07:00 +23°C° 0 mm 5 m/S 759 mmHg 40%
08:00 +26°C° 0 mm 5 m/S 759 mmHg 36%
09:00 +27°C° 0 mm 5 m/S 760 mmHg 32%
10:00 +28°C° 0 mm 5 m/S 760 mmHg 32%
11:00 +28°C° 0 mm 4 m/S 760 mmHg 31%
12:00 +29°C° 0 mm 4 m/S 760 mmHg 30%
13:00 +29°C° 0 mm 4 m/S 760 mmHg 29%
14:00 +29°C° 0 mm 3 m/S 759 mmHg 27%
15:00 +30°C° 0 mm 3 m/S 759 mmHg 26%
16:00 +30°C° 0 mm 2 m/S 759 mmHg 27%
17:00 +29°C° 0 mm 2 m/S 759 mmHg 28%
18:00 +29°C° 0 mm 2 m/S 759 mmHg 29%
19:00 +29°C° 0 mm 2 m/S 759 mmHg 30%
20:00 +28°C° 0 mm 3 m/S 759 mmHg 31%
21:00 +28°C° 0 mm 4 m/S 759 mmHg 32%
22:00 +27°C° 0 mm 5 m/S 759 mmHg 27%
23:00 +27°C° 0 mm 6 m/S 759 mmHg 23%

14 Mai, Freitag

Zeit Temperatur Niederschläge Wind Luftdruck Luftfeuchtigkeit
00:00 +27°C° 0 mm 8 m/S 760 mmHg 18%
01:00 +26°C° 0 mm 8 m/S 760 mmHg 19%
02:00 +24°C° 0 mm 8 m/S 760 mmHg 20%
03:00 +24°C° 0 mm 8 m/S 760 mmHg 21%
04:00 +24°C° 0 mm 9 m/S 760 mmHg 21%
05:00 +24°C° 0 mm 9 m/S 761 mmHg 21%
06:00 +24°C° 0 mm 9 m/S 761 mmHg 21%
07:00 +27°C° 0 mm 9 m/S 761 mmHg 19%
08:00 +29°C° 0 mm 9 m/S 761 mmHg 16%
09:00 +31°C° 0 mm 9 m/S 761 mmHg 13%
10:00 +32°C° 0 mm 8 m/S 761 mmHg 13%
11:00 +33°C° 0 mm 7 m/S 761 mmHg 13%
12:00 +33°C° 0 mm 6 m/S 761 mmHg 13%
13:00 +33°C° 0 mm 5 m/S 761 mmHg 13%
14:00 +32°C° 0 mm 4 m/S 761 mmHg 14%
15:00 +32°C° 0 mm 4 m/S 761 mmHg 14%
16:00 +30°C° 0 mm 3 m/S 761 mmHg 14%
17:00 +30°C° 0 mm 3 m/S 761 mmHg 14%
18:00 +29°C° 0 mm 2 m/S 760 mmHg 14%
19:00 +29°C° 0 mm 3 m/S 760 mmHg 15%
20:00 +28°C° 0 mm 3 m/S 760 mmHg 15%
21:00 +28°C° 0 mm 3 m/S 760 mmHg 16%
22:00 +27°C° 0 mm 4 m/S 760 mmHg 17%
23:00 +27°C° 0 mm 5 m/S 760 mmHg 19%

15 Mai, Samstag

Zeit Temperatur Niederschläge Wind Luftdruck Luftfeuchtigkeit
00:00 +27°C° 0 mm 6 m/S 760 mmHg 20%
01:00 +26°C° 0 mm 7 m/S 760 mmHg 24%
02:00 +24°C° 0 mm 7 m/S 760 mmHg 29%
03:00 +23°C° 0 mm 8 m/S 760 mmHg 34%
04:00 +23°C° 0 mm 8 m/S 760 mmHg 34%
05:00 +23°C° 0 mm 7 m/S 760 mmHg 34%
06:00 +24°C° 0 mm 7 m/S 760 mmHg 34%
07:00 +26°C° 0 mm 7 m/S 760 mmHg 31%
08:00 +28°C° 0 mm 7 m/S 761 mmHg 28%
09:00 +30°C° 0 mm 6 m/S 761 mmHg 24%
10:00 +30°C° 0 mm 6 m/S 760 mmHg 23%
11:00 +32°C° 0 mm 5 m/S 760 mmHg 22%
12:00 +32°C° 0 mm 4 m/S 760 mmHg 21%
13:00 +32°C° 0 mm 4 m/S 760 mmHg 22%
14:00 +31°C° 0 mm 3 m/S 760 mmHg 23%
15:00 +30°C° 0 mm 3 m/S 760 mmHg 24%
16:00 +30°C° 0 mm 2 m/S 760 mmHg 25%
17:00 +29°C° 0 mm 1 m/S 759 mmHg 25%
18:00 +29°C° 0 mm 1 m/S 759 mmHg 26%
19:00 +28°C° 0 mm 1 m/S 759 mmHg 27%
20:00 +28°C° 0 mm 1 m/S 760 mmHg 29%
21:00 +27°C° 0 mm 1 m/S 760 mmHg 30%
22:00 +27°C° 0 mm 1 m/S 759 mmHg 30%
23:00 +27°C° 0 mm 2 m/S 759 mmHg 29%
Mehr zeigen

Wir brauchen deine Erlaubnis

Meteoprog und unser Service Anbieter werden persönliche Daten aufbewahren, so wie Cookies, Geräte Bezeichnung oder ähnliche Technologien von deinem Gerät und Prozess, so wie Persönliche Daten Inhalte und Werbungen, genauso wie social Media und den Verkehr zu analysieren.

  • Aufbewahrung und/oder Zugang zu deiner Geräte Informationen.

    Cookies, Geräte Bezeichnung oder andere Informationen, können aufbewahrt oder Zugang zu deinem Gerät erhalten, für den Grund, der oben angegeben wird.

  • Personalisierte Werbung und Inhalte, Messungen, Einblick in das Publikum und Produkt Entwicklung.

    Werbungen und Inhalte können personalisiert werden, basierend auf ein Profil. Mehr Daten können besser personalisierte Werbungen und Inhalte hinzufügen. Werbung und Inhalte können gezeigt und gemessen werden. Einblicke über das Publikum, welche die Werbung gesehen haben und den Inhalt, können abgeleitet werden. So wie Daten können genutzt werden, um es zu verbessern oder die Benutzer Erfahrung zu verbessern das System und die Software.

Wenn du “Ich stimme zu” klickst, erlaubst du uns, die Cookies zu benutzen die Geräte Bezeichnung, den Web oder ähnliche Technologien zu benutzen. Deine Settings, können in deinem Gerät bei deinem Browser geändert werden.

Für den bestimmten Zweck, berechtigten Interessen beruhen darauf, mehr als auf den Inhalt. Du kannst mehr darüber in unseren Privaten und Cookie Politik lesen.